Regional Weather Roundup
Issued by NWS Cleveland, OH

Home | Current Version | Previous Version | Graphics & Text | Print | Product List | Glossary On
Versions: 1 2 3 4 5 6 7 8 9 10 11 12 13 14 15 16 17 18 19 20 21 22 23 24 25 26 27 28 29 30 31 32 33 34 35 36 37 38 39 40 41 42 43 44 45 46 47 48 49 50
000
ASUS41 KCLE 302110
RWRCLE
OHIO REGIONAL WEATHER ROUNDUP
NATIONAL WEATHER SERVICE CLEVELAND, OH
400 PM EST FRI JAN 30 2015

NOTE: "FAIR" INDICATES FEW OR NO CLOUDS BELOW 12,000 FEET WITH NO
SIGNIFICANT WEATHER AND/OR OBSTRUCTIONS TO VISIBILITY.

OHZ001>008-015>018-024>027-034-035-043-044-302200-
   NORTHWEST OHIO

CITY           SKY/WX    TMP DP  RH WIND       PRES   REMARKS
DEFIANCE       MOSUNNY   26  10  50 NW9       30.45S WCI  17
FINDLAY        MOSUNNY   23   8  52 NW9       30.43R WCI  13
TOLEDO EXPRESS PTSUNNY   22   8  55 W12G17    30.44S WCI  10
TOLEDO EXEC    SUNNY     23   6  48 NW10      30.45S WCI  12
LIMA           CLOUDY    24  11  57 NW9       30.42S WCI  14
$$

OHZ009>014-019>023-028>033-038-089-302200-
   NORTHEAST OHIO

CITY           SKY/WX    TMP DP  RH WIND       PRES   REMARKS
CLE-HOPKINS    CLOUDY    17   6  62 NW16      30.44R WCI   2
CLE-LAKEFRONT  CLOUDY    17   8  67 NW16      30.43R WCI   2
CUY CO. ARPT   CLOUDY    18  10  73 NW16G23   30.40R WCI   3
LORAIN-ELYRIA  MOSUNNY   17   5  59 N14       30.43R WCI   3
ASHTABULA      LGT SNOW  15  11  83 NW10G21   30.36R FOG     WCI   2
AKRON-CANTON   LGT SNOW  16   7  67 NW17      30.36R WCI   0
WOOSTER        CLOUDY    16   6  65 N13       30.39S WCI   2
MANSFIELD      MOSUNNY   17   6  62 NW13      30.39R WCI   4
YOUNGSTOWN     LGT SNOW  15   7  70 NW17      30.32R WCI  -1
$$

OHZ042-051>053-060>062-070>072-077>081-302200-
  SOUTHWEST OHIO

CITY           SKY/WX    TMP DP  RH WIND       PRES   REMARKS
CINC-COVINGTON MOSUNNY   31  14  49 NW9       30.43S WCI  23
CINC-LUNKEN    SUNNY     31  14  49 N7        30.47S WCI  24
HAMILTON       FLURRIES  30  15  53 NW8G17    30.47R WCI  22
DAYTON         PTSUNNY   27  13  55 NW12      30.44R WCI  17
WRIGHT-PAT AFB MOSUNNY   24  12  59 NW9       30.45R WCI  15
DAYTON GENERAL MOSUNNY   26  13  57 NW10      30.43R WCI  16
WILMINGTON     MOSUNNY   24  12  60 NW10      30.42R WCI  14
$$

OHZ036-037-039>041-045>050-054>059-063>069-073>076-082>088-302200-
  CENTRAL AND SOUTHEAST OHIO

CITY           SKY/WX    TMP DP  RH WIND       PRES   REMARKS
COLUMBUS       PTSUNNY   23   9  55 NW13      30.42R WCI  11
OSU AIRPORT    PTSUNNY   21   9  59 NW8G21    30.42R WCI  11
BOLTON FIELD   MOSUNNY   25  10  54 NW12      30.42S WCI  14
RICKENBACK AFB CLOUDY    25  11  55 N13       30.42S WCI  14
NEWARK         MOSUNNY   22   8  55 NW12      30.41R WCI  10
MARION         SUNNY     21   8  57 N9        30.43R WCI  11
LANCASTER      PTSUNNY   25  12  58 N9        30.42R WCI  15
ZANESVILLE     PTSUNNY   22   7  52 W12       30.40R WCI  10
NEW PHILLY     CLOUDY    18   6  59 NW13G23   30.41R WCI   5
$$



USA.gov is the U.S. government's official web portal to all federal, state and local government web resources and services.